Location: Newark
(51.2333°N, 6.7833°E)
Time: 06:41:33
(UTC+00:00)

N. Korean satellite - Visible Passes

Search period start: 18 November 2019 00:00
Search period end: 28 November 2019 00:00
Orbit: 456 x 506 km, 97.2° (Epoch: 17 November)

Date Brightness Start Highest point End Pass type
(mag) Time Alt. Az. Time Alt. Az. Time Alt. Az.
18 Nov 8.6 04:59:39 10° NNE 05:03:03 32° E 05:06:24 10° SSE visible
18 Nov 8.9 17:13:25 10° SSW 17:16:37 28° W 17:19:52 10° NW visible
19 Nov 9.6 04:34:51 10° NE 04:37:29 18° E 04:40:05 10° SE visible
19 Nov 7.0 06:07:32 10° N 06:11:06 44° WNW 06:14:37 10° SW visible
19 Nov 7.5 16:47:31 10° S 16:51:06 53° W 16:54:46 10° NNW visible
20 Nov 6.6 05:42:01 10° NNE 05:45:47 84° W 05:49:27 10° SSW visible
20 Nov 6.6 16:22:01 10° SSE 16:25:42 80° ENE 16:29:26 10° N visible
20 Nov 10.3 17:58:50 10° W 17:59:38 11° W 18:00:26 10° WNW visible
21 Nov 7.6 05:16:43 10° NNE 05:20:21 50° E 05:23:55 10° S visible
21 Nov 9.6 17:31:16 10° SW 17:33:57 19° W 17:36:41 10° NW visible
22 Nov 8.9 04:51:38 10° NE 04:54:50 27° E 04:57:58 10° SSE visible
22 Nov 8.5 17:05:01 10° SSW 17:08:23 34° W 17:11:49 10° NNW visible
23 Nov 9.9 04:26:59 10° NE 04:29:13 15° E 04:31:24 10° SE visible
23 Nov 6.7 05:59:18 10° N 06:02:57 53° WNW 06:06:30 10° SSW visible
23 Nov 7.1 16:39:14 10° S 16:42:54 66° WSW 16:46:37 10° NNW visible
24 Nov 6.7 05:33:51 10° NNE 05:37:34 79° ESE 05:41:13 10° S visible
24 Nov 6.6 16:13:51 10° SSE 16:17:30 65° ENE 16:21:13 10° N visible
24 Nov 10.1 17:49:34 10° WSW 17:51:20 13° W 17:53:05 10° WNW visible
25 Nov 8.0 05:08:35 10° NNE 05:12:07 40° E 05:15:33 10° S visible
25 Nov 9.3 17:22:41 10° SSW 17:25:41 23° W 17:28:42 10° NW visible
26 Nov 9.2 04:43:37 10° NE 04:46:33 22° E 04:49:26 10° SE visible
26 Nov 7.2 06:16:39 10° N 06:20:03 35° WNW 06:23:22 10° SW visible
26 Nov 8.1 16:56:36 10° S 17:00:08 41° W 17:03:42 10° NNW visible
27 Nov 10.1 04:19:17 10° ENE 04:20:53 12° E 04:22:28 10° ESE visible
27 Nov 6.5 05:51:04 10° N 05:54:43 66° WNW 05:58:19 10° SSW visible
27 Nov 6.8 16:30:57 10° S 16:34:40 81° WSW 16:38:25 10° NNW visible
